Weather in Mountain View

United States     37°23′09″N   122°05′02″W
temp.,
°C
wind,
m/s
gust,
m/s
humid.,
%
clouds,
%
prec.,
mm/h
press.,
hPa
HPBL,
m
15 june, tue
tue1523:00+16wnw24710 0.0 1019482
02:00+15w14730 0.0 1019347
05:00+14w14770 0.0 1019324
08:00+16wnw23635 0.0 1020464
11:00+22nw34324 0.0 1020791
14:00+25nw45240 0.0 1019892
17:00+24nw57290 0.0 1017765
20:00+20wnw33440 0.0 1018478
16 june, wed
wed1623:00+17w12582 0.0 1017243
02:00+16w0062100 0.0 1015118
05:00+15nnw1163100 0.0 101539
08:00+19wnw114380 0.0 1016200
11:00+28wnw3420100 0.0 1015690
14:00+31wnw4417100 0.0 1013620
17:00+30nw4518100 0.0 1012446
20:00+24nw2331100 0.0 1012242
17 june, thu
thu1723:00+20nw124381 0.0 1012128
02:00+18nw1149100 0.0 101056
05:00+18nnw1148100 0.0 101029
08:00+21w103611 0.0 1011138
11:00+31wnw22195 0.0 1010401
14:00+35wnw44155 0.0 1008459
17:00+34nw45175 0.0 1007455
20:00+27nw33290 0.0 1008224
18 june, fri
fri1823:00+22nw22390 0.0 1009133
02:00+20nw11440 0.0 100882
05:00+19nw11480 0.0 100838
08:00+22nw11380 0.0 1008162
11:00+31wnw21200 0.0 1008361
14:00+35nw44170 0.0 1007465
17:00+33nw44180 0.0 1006448
20:00+26nw33310 0.0 1007287
19 june, sat
sat1923:00+21wnw22460 0.0 1008204
02:00+19wnw11520 0.0 1008104
05:00+18wnw11590 0.0 100979
08:00+20wnw11480 0.0 1010250
11:00+28wnw22270 0.0 1010489
14:00+31nw44260 0.0 1009504
17:00+29nw44270 0.0 1009498
20:00+24nw33400 0.0 1010325